Boone Lake Weather Center

Moon Phase Calendar



Boone Lake Water Level
Online Cameras

 


      

Current Conditions in Oak Grove
2/29/2024 4:28:01 AM

28°F
Feels Like 28
Clouds
Humidity
74%
Pressure
30.39"
Wind
0
Dew Point
22°F
UV Index
0/10 (Low)
Visibility
6 mi

Hourly Forecast

Date & Time Thu, Feb 29
4:00 AM
Thu, Feb 29
5:00 AM
Thu, Feb 29
6:00 AM
Thu, Feb 29
7:00 AM
Thu, Feb 29
8:00 AM
Thu, Feb 29
9:00 AM
Thu, Feb 29
10:00 AM
Thu, Feb 29
11:00 AM
Thu, Feb 29
12:00 PM
Thu, Feb 29
1:00 PM
Thu, Feb 29
2:00 PM
Thu, Feb 29
3:00 PM
Thu, Feb 29
4:00 PM
Thu, Feb 29
5:00 PM
Thu, Feb 29
6:00 PM
Thu, Feb 29
7:00 PM
Thu, Feb 29
8:00 PM
Thu, Feb 29
9:00 PM
Thu, Feb 29
10:00 PM
Thu, Feb 29
11:00 PM
Fri, Mar 1
12:00 AM
Fri, Mar 1
1:00 AM
Fri, Mar 1
2:00 AM
Fri, Mar 1
3:00 AM
Fri, Mar 1
4:00 AM
Fri, Mar 1
5:00 AM
Fri, Mar 1
6:00 AM
Fri, Mar 1
7:00 AM
Fri, Mar 1
8:00 AM
Fri, Mar 1
9:00 AM
Fri, Mar 1
10:00 AM
Fri, Mar 1
11:00 AM
Fri, Mar 1
12:00 PM
Fri, Mar 1
1:00 PM
Fri, Mar 1
2:00 PM
Fri, Mar 1
3:00 PM
Fri, Mar 1
4:00 PM
Fri, Mar 1
5:00 PM
Fri, Mar 1
6:00 PM
Fri, Mar 1
7:00 PM
Fri, Mar 1
8:00 PM
Fri, Mar 1
9:00 PM
Fri, Mar 1
10:00 PM
Fri, Mar 1
11:00 PM
Sat, Mar 2
12:00 AM
Sat, Mar 2
1:00 AM
Sat, Mar 2
2:00 AM
Sat, Mar 2
3:00 AM
Condition
Clouds

Clouds

Clouds

Clouds

Clouds

Clouds

Clouds

Clouds

Clouds

Clouds

Clouds

Clouds

Clouds

Clouds

Clouds

Clouds

Clouds

Clouds

Clouds

Clouds

Clouds

Clouds

Clouds

Clouds

Clouds

Clouds

Rain

Rain

Rain

Rain

Rain

Rain

Rain

Rain

Rain

Rain

Rain

Clouds

Clouds

Clouds

Clouds

Rain

Rain

Rain

Clouds

Clouds

Rain

Rain
Temperature 28°F28°F28°F28°F30°F34°F37°F41°F45°F47°F48°F48°F48°F47°F43°F40°F39°F38°F38°F36°F36°F36°F36°F35°F36°F37°F37°F36°F37°F38°F39°F39°F40°F40°F41°F42°F42°F44°F43°F43°F43°F42°F43°F43°F42°F42°F43°F42°F
Feels Like 23°F25°F28°F28°F30°F34°F37°F41°F45°F47°F48°F47°F47°F47°F43°F37°F39°F36°F35°F36°F34°F33°F33°F32°F36°F34°F34°F32°F34°F34°F39°F36°F37°F37°F37°F42°F39°F42°F41°F43°F41°F42°F41°F43°F42°F42°F43°F40°F
Cloudiness 20%28%38%49%82%75%83%88%81%84%100%100%100%100%100%100%100%100%100%100%100%100%100%99%100%100%100%100%100%100%100%100%100%100%100%100%100%100%100%100%100%98%99%99%94%94%100%100%
Visibility 6 mi6 mi6 mi6 mi6 mi6 mi6 mi6 mi6 mi6 mi6 mi6 mi6 mi6 mi6 mi6 mi6 mi6 mi6 mi6 mi6 mi6 mi6 mi6 mi6 mi6 mi6 mi6 mi6 mi6 mi5 mi6 mi6 mi6 mi5 mi6 mi6 mi6 mi6 mi6 mi6 mi6 mi6 mi6 mi6 mi6 mi6 mi6 mi
Precipitation 0%0%0%0%0%0%0%0%0%0%0%0%0%0%0%0%0%0%0%0%0%0%0%0%0%9%43%63%59%71%93%100%100%100%100%100%100%80%80%80%9%49%73%70%67%75%73%90%
Humidity 74%77%79%82%78%62%50%39%34%32%31%31%32%37%46%47%50%53%56%61%64%66%69%71%72%70%80%90%89%92%92%94%92%94%94%94%95%90%93%93%93%94%95%95%96%96%96%98%
Dew Point 22°F23°F23°F24°F25°F22°F19°F17°F17°F18°F18°F18°F19°F21°F23°F21°F21°F22°F23°F23°F25°F25°F26°F26°F27°F27°F30°F33°F34°F35°F36°F37°F37°F38°F39°F39°F40°F41°F40°F40°F40°F40°F41°F41°F40°F40°F41°F41°F
Pressure 30.39"30.42"30.45"30.47"30.5"30.53"30.53"30.5"30.5"30.47"30.45"30.42"30.39"30.39"30.42"30.42"30.42"30.42"30.42"30.42"30.42"30.42"30.39"30.39"30.39"30.42"30.42"30.42"30.39"30.39"30.42"30.39"30.39"30.36"30.33"30.3"30.3"30.27"30.24"30.27"30.27"30.27"30.27"30.27"30.24"30.24"30.24"30.21"
Wind Speed 4.8 mph3.1 mph1.4 mph0.6 mph1.6 mph1.6 mph2.6 mph2.6 mph2.2 mph1.3 mph1.7 mph3.2 mph3.2 mph2.6 mph2.9 mph4.4 mph2.8 mph3.6 mph3.8 mph2.9 mph3.3 mph4.2 mph3.6 mph4.1 mph1.1 mph4 mph3.4 mph5.5 mph4.8 mph4.6 mph2.4 mph3.7 mph4.2 mph4.2 mph5.4 mph2.6 mph4.8 mph4.5 mph3.6 mph2 mph3.6 mph2.5 mph3.2 mph2 mph3 mph2.9 mph0.9 mph4.6 mph
Wind
Direction
258°
WSW
238°
WSW
288°
WNW
15°
NNE
68°
ENE
67°
ENE
73°
ENE
42°
NE
14°
NNE
19°
NNE

N
357°
N
33°
NNE
44°
NE
31°
NNE
75°
ENE
55°
NE
63°
ENE
76°
ENE
97°
E
81°
E
101°
E
101°
E
109°
ESE
154°
SSE
200°
SSW
150°
SSE
91°
E
89°
E
98°
E
134°
SE
104°
ESE
95°
E
100°
E
108°
ESE
99°
E
77°
ENE
95°
E
85°
E
129°
SE
111°
ESE
122°
ESE
104°
ESE
109°
ESE
84°
E
107°
ESE
225°
SW
92°
E

Daily Forecast

Date High Low Precip. Humidity
Today
Feb 29

Clouds
48 °F
28 °F
0%
34%
Friday
Mar 1

Rain
44 °F
35 °F
100%
92%
Saturday
Mar 2

Rain
62 °F
42 °F
100%
77%
Sunday
Mar 3

Clear
67 °F
44 °F
0%
54%
Monday
Mar 4

Clouds
66 °F
47 °F
0%
58%
Tuesday
Mar 5

Rain
63 °F
48 °F
78%
64%
Wednesday
Mar 6

Rain
58 °F
51 °F
100%
87%
Thursday
Mar 7

Clouds
64 °F
49 °F
3%
63%
Friday
Mar 8

Rain
66 °F
47 °F
77%
63%
Saturday
Mar 9

Rain
65 °F
52 °F
100%
68%
Sunday
Mar 10

Clouds
53 °F
39 °F
0%
41%
Monday
Mar 11

Clouds
56 °F
35 °F
0%
42%
Tuesday
Mar 12

Clouds
59 °F
42 °F
0%
43%
Wednesday
Mar 13

Clear
68 °F
41 °F
0%
43%
Thursday
Mar 14

Clouds
72 °F
48 °F
12%
52%
Friday
Mar 15

Clouds
67 °F
52 °F
16%
66%

Temperature 8-14 Day Outlook



Precipitation 8-14 Day Outlook




Quick Links
Boone Lake News
Boone Lake Photos
Boone Lake Videos




About Us
Contact Us
Site Map
Search Site
Advertise With Us
   
Boone.USLakes.info
THE BOONE LAKE WEBSITE

Copyright 2024, Lakes Online
Privacy    |    Legal